{"data":{"norad_id":61973,"intl_designator":"2024-210Q","name":"STARLINK-32601","alt_names":[],"object_type":"PAYLOAD","status":"ACTIVE","operator":null,"country":"US","launch_date":"2024-11-14","launch_site_code":"AFETR","launch_vehicle":null,"mission":null,"orbit_class":"UNKNOWN","rcs_meters":null,"size_class":null,"mass_kg":null,"dimensions":null,"purposes":["comms"],"wikipedia_slug":null,"has_3d_model":false,"image_url":null,"decayed_at":null,"tle_current":{"epoch":"2026-09-21T03:03:11.901312Z","epoch_age_seconds":131403,"freshness":"FRESH","line1":"1 61973U 24210Q   26264.12722108  .00020325  00000+0  74628-3 0  9999","line2":"2 61973  42.9999 155.7437 0001017 270.0410  90.0325 15.27571409104774","mean_motion":15.27571409,"eccentricity":0.0001017,"inclination_deg":42.9999,"raan_deg":155.7437,"arg_perigee_deg":270.041,"mean_anomaly_deg":90.0325,"bstar":0.00074628,"rev_number":10477,"period_min":94.267278866045,"perigee_km":482.37703546264,"apogee_km":483.77260594698,"semimajor_km":6861.2118207048,"source":"CELESTRAK","updated_at":"2026-09-22T09:00:49.479754Z"}}}